Home > Weather > Anchorage > Past weeks

Flag for USA Weather for the Past 2 Weeks in Anchorage, Alaska, USA

Now
49 °F

Partly sunny.


Feels Like: 47 °F
Forecast: 41 / 49 °F
Wind: 5 mph from Southwest

Location: Lake Hood Seaplane

Current Time: Apr 28, 2016 at 6:35:18 PM

Latest Report: Apr 28, 2016 at 5:53 PM


Visibility: 10 mi

Pressure: 29.55 "Hg

Humidity: 55%

Dew Point: 33 °F

Location of AnchorageLocation

Historic Weather in Anchorage — Graph

°F

Anchorage Temperature Yesterday

Maximum temperature yesterday: 51 °F (at 2:53 PM)
Minimum temperature yesterday: 39 °F (at 6:53 AM)
Average temperature yesterday: 46 °F

High & Low Weather Summary for the Past Weeks

 TemperatureHumidityPressure
High58 °F (Apr 21, 4:53 PM)92% (Apr 14, 7:53 AM)30.11 "Hg (Apr 14, 7:53 AM)
Low32 °F (Apr 17, 6:53 AM)27% (Apr 21, 3:53 PM)29.54 "Hg (Apr 15, 12:53 AM)
Average46 °F60%29.77 "Hg
* Reported Apr 13 4:53 PM — Apr 28 4:53 PM, Anchorage, Weather by CustomWeather, © 2016

Note: Actual official high and low records may vary slightly from our data, if they occured in-between our weather recording intervals... More about our weather records

Advertising

Anchorage Weather History for the Previous 24 Hours

Scroll right to see more
 ConditionsComfort  
Time TempWeatherWind HumidityBarometerVisibility
4:53 PM
Thu, Apr 28
49 °FOvercast.No wind55%29.55 "Hg10 mi
3:53 PM49 °FScattered clouds.5 mph55%29.56 "Hg10 mi
2:53 PM48 °FMostly cloudy.6 mph54%29.56 "Hg10 mi
1:53 PM47 °FOvercast.No wind59%29.57 "Hg10 mi
12:53 PM47 °FOvercast.3 mph59%29.58 "Hg10 mi
11:53 AM46 °FPartly sunny.6 mph63%29.58 "Hg10 mi
10:53 AM44 °FOvercast.No wind63%29.59 "Hg10 mi
9:53 AM43 °FOvercast.7 mph65%29.60 "Hg10 mi
8:53 AM43 °FBroken clouds.6 mph65%29.59 "Hg10 mi
7:53 AM41 °FMostly cloudy.5 mph74%29.61 "Hg10 mi
6:53 AM40 °FClear.3 mph80%29.60 "Hg10 mi
5:53 AM38 °FPassing clouds.No wind83%29.62 "Hg10 mi
4:53 AM39 °FPartly cloudy.No wind82%29.62 "Hg10 mi
3:53 AM41 °FOvercast.3 mph80%29.64 "Hg10 mi
2:53 AM42 °FOvercast.No wind73%29.65 "Hg10 mi
1:53 AM41 °FPassing clouds.No wind76%29.66 "Hg10 mi
12:53 AM42 °FPassing clouds.No wind73%29.66 "Hg10 mi
11:53 PM
Wed, Apr 27
45 °FOvercast.No wind63%29.67 "Hg10 mi
10:53 PM47 °FOvercast.No wind52%29.67 "Hg10 mi
9:53 PM47 °FBroken clouds.No wind52%29.68 "Hg10 mi
8:53 PM50 °FOvercast.No wind44%29.68 "Hg10 mi
7:53 PM51 °FPassing clouds.10 mph41%29.67 "Hg10 mi
6:53 PM50 °FOvercast.9 mph44%29.70 "Hg10 mi
Weather by CustomWeather, © 2016

See weather overviewHow to use our weather pages